EW9495 Weather Reports


time (UTC)temp
F
wind
direction
speed
knots
gust
knots
rain 1hr
in
rain 24hr
in
rain mn
in
humidity
%
barometer
mb
20260503013059 0 126 2.6 6.1 0.00 0.00 0.00 1004.1
20260503011619 0 142 3.5 6.1 0.00 0.00 0.00 1004.1
20260503010058 0 128 0.0 5.2 0.00 0.00 0.00 1004.3
20260503004555 0 131 4.3 6.1 0.00 0.00 0.00 1004.4
20260503003054 0 155 2.6 5.2 0.00 0.00 0.00 1004.6
20260503001554 0 140 0.9 4.3 0.00 0.00 0.00 1004.8
20260503000104 0 126 1.7 3.5 0.00 0.00 0.00 1004.9
20260502234602 0 273 0.9 4.3 0.00 0.00 0.00 1005.1
20260502233052 0 280 0.0 3.5 0.00 0.00 0.00 1005.2
20260502231552 0 316 1.7 7.0 0.00 0.00 0.00 1005.4
20260502230052 0 47 3.5 7.0 0.00 0.00 0.00 1005.5
20260502224551 0 336 7.8 12.2 0.00 0.00 0.00 1005.5
20260502223051 0 76 1.7 7.0 0.00 0.00 0.00 1005.8
20260502221602 0 348 2.6 5.2 0.00 0.00 0.00 1005.9
20260502220058 0 343 0.9 6.1 0.00 0.00 0.00 1006.2
20260502214545 0 84 0.0 5.2 0.00 0.00 0.00 1006.3
20260502213042 0 74 1.7 9.6 0.00 0.00 0.00 1006.6
20260502211539 0 291 2.6 7.8 0.00 0.00 0.00 1006.7
20260502210033 0 244 4.3 8.7 0.00 0.00 0.00 1006.7
20260502204527 0 236 2.6 8.7 0.00 0.00 0.00 1006.9
20260502203022 0 308 3.5 6.1 0.00 0.00 0.00 1006.9
20260502201517 0 263 4.3 9.6 0.00 0.00 0.00 1007.1
20260502200013 0 330 3.5 7.8 0.00 0.00 0.00 1007.5
20260502194508 0 295 4.3 9.6 0.00 0.00 0.00 1007.7
20260502193004 0 321 3.5 10.4 0.00 0.00 0.00 1007.9
20260502191604 0 340 5.2 9.6 0.00 0.00 0.00 1008.0
20260502190059 0 26 5.2 9.6 0.00 0.00 0.00 1008.3
20260502184551 0 27 6.1 12.2 0.00 0.00 0.00 1008.3
20260502183049 0 325 5.2 10.4 0.00 0.00 0.00 1008.3
20260502181544 0 344 6.1 12.2 0.00 0.00 0.00 1008.4
20260502163018 0 326 6.1 12.2 0.00 0.00 0.00 1008.1
20260502161510 0 334 5.2 13.0 0.00 0.00 0.00 1008.0
20260502151607 0 37 7.8 16.5 0.00 0.00 0.00 1007.7
20260502123003 0 65 7.8 15.6 0.00 0.00 0.00 1007.0
20260502121559 0 32 10.4 18.2 0.00 0.00 0.00 1006.9
20260502114551 0 74 12.2 20.0 0.00 0.00 0.00 1006.3
20260502113052 0 52 10.4 24.3 0.00 0.00 0.00 1006.2
20260502111546 0 74 14.8 22.6 0.00 0.00 0.00 1005.9
20260502110038 0 78 13.9 20.9 0.00 0.00 0.00 1006.5
20260502104532 0 72 13.9 20.9 0.00 0.00 0.00 1005.7
20260502103028 0 71 13.0 22.6 0.00 0.00 0.00 1005.5
20260502101525 0 69 17.4 22.6 0.00 0.00 0.00 1005.2
20260502091505 0 178 0.9 7.0 0.00 0.00 0.00 1004.5
20260502090116 0 349 3.5 7.8 0.00 0.00 0.00 1004.3
20260502071529 0 349 0.9 3.5 0.00 0.00 0.00 1004.0
20260502070038 0 34 0.9 1.7 0.00 0.00 0.00 1004.1
20260502064520 0 37 0.9 1.7 0.00 0.00 0.00 1004.1
20260502063032 0 29 0.0 0.9 0.00 0.00 0.00 1004.1
20260502061512 0 36 0.0 0.9 0.00 0.00 0.00 1004.1
20260502060008 0 39 0.0 0.9 0.00 0.00 0.00 1004.2
20260502054519 0 339 0.9 3.5 0.00 0.00 0.00 1004.1
20260502053007 0 339 0.9 4.3 0.00 0.00 0.00 1004.2
20260502051508 0 350 1.7 5.2 0.00 0.00 0.00 1004.3
20260502050008 0 333 2.6 4.3 0.00 0.00 0.00 1004.3
20260502044506 0 325 1.7 4.3 0.00 0.00 0.00 1004.4
20260502043005 0 321 3.5 6.1 0.00 0.00 0.00 1004.2
20260502041504 0 299 4.3 7.0 0.00 0.00 0.00 1004.1
20260502040004 0 19 3.5 5.2 0.00 0.00 0.00 1003.8
20260502034504 0 304 3.5 6.1 0.00 0.00 0.00 1003.9
20260502033004 0 319 3.5 6.1 0.00 0.00 0.00 1003.7
20260502031503 0 327 0.0 5.2 0.00 0.00 0.00 1003.6
20260502030003 0 10 3.5 5.2 0.00 0.00 0.00 1003.3
20260502024502 0 332 2.6 6.1 0.00 0.00 0.00 1003.3
20260502023002 0 317 4.3 7.8 0.00 0.00 0.00 1003.1
20260502021601 0 308 4.3 9.6 0.00 0.00 0.00 1002.9
20260502014559 0 273 5.2 9.6 0.00 0.00 0.00 1002.8